Regional Weather Roundup
Issued by NWS Upton, NY

Current Version | Previous Version | Graphics & Text | Print | Product List | Glossary Off
Versions: 1 2 3 4 5 6 7 8 9 10 11 12 13 14 15 16 17 18 19 20 21 22 23 24 25 26 27 28 29 30 31 32 33 34 35 36 37 38 39 40 41 42 43 44 45 46 47 48 49 50

573
ASUS41 KOKX 290308
RWROKX

REGIONAL WEATHER ROUNDUP
NATIONAL WEATHER SERVICE NEW YORK NY
1100 PM EDT FRI APR 28 2017

NOTE: "FAIR" INDICATES FEW OR NO CLOUDS BELOW 12,000 FEET WITH NO
SIGNIFICANT WEATHER AND/OR OBSTRUCTIONS TO VISIBILITY.

NYZ071-072-176-178-NJZ106-104-290400-
NEW YORK CITY METRO AREA

CITY           SKY/WX    TMP DP  RH WIND       PRES   REMARKS
Central Park   PTCLDY    75  41  29 W5        30.07S
Wall St Helipt PTCLDY    71  44  37 W8        30.05S
Bronx Bot Gard   N/A     72  43  35 E2        30.04S
LaGuardia APRT PTCLDY    75  45  34 SW10      30.03S
Kennedy INTL   MOCLDY    60  55  83 CALM      30.05S
Breezy Point     N/A     57 N/A N/A S5          N/A
Newark/Liberty MOCLDY    74  43  32 SW9       30.03F
Teterboro      CLEAR     68  46  45 W3        30.02F
$$

NYZ177-179-078>081-290400-
LONG ISLAND NEW YORK

CITY           SKY/WX    TMP DP  RH WIND       PRES   REMARKS
Jones Beach      N/A     57 N/A N/A SW8         N/A
Matinecock PT    N/A     73 N/A N/A S6          N/A
Farmingdale    CLEAR     60  53  77 SW3       30.04F
MacArthur/ISP  MOCLDY    59  55  87 S3        30.04F
Shirley        PTCLDY    58  54  86 SW5       30.04F
Mt Sinai Harb    N/A     61 N/A N/A S6          N/A
Westhampton    PTCLDY    58  53  84 SW8       30.06F
East Hampton     N/A     56  53  88 SW6       30.04F
Montauk        NOT AVBL
$$

NYZ052-065-067-290400-
HUDSON VALLEY

CITY           SKY/WX    TMP DP  RH WIND       PRES   REMARKS
White Plains   PTCLDY    68  46  45 W5        30.03F
Larchmont Harb   N/A     64 N/A N/A SW9         N/A
Croton O-T Hud   N/A     66 N/A N/A E3          N/A
Newburgh       NOT AVBL
Montgomery     CLOUDY    66  48  52 W3        30.02S
Poughkeepsie   CLOUDY    72  46  39 SW6       30.00F
Albany         MOCLDY    62  50  64 CALM      30.00S
$$

NJZ001-105-106-008-010-013-015-019>022-104-290400-
NEW JERSEY

CITY           SKY/WX    TMP DP  RH WIND       PRES   REMARKS
Newark/Liberty MOCLDY    74  43  32 SW9       30.03F
Teterboro      CLEAR     68  46  45 W3        30.02F
Caldwell       MOCLDY    65  49  56 CALM      30.04S
Somerville     PTCLDY    60  52  74 CALM      30.03R
Linden           N/A     74  43  32 CALM      30.04S
Perth Amboy      N/A     70 N/A N/A W5          N/A
Sussex         CLOUDY    61  52  72 CALM      30.05S
Andover          N/A     60  54  80 CALM      30.05S
Trenton        PTCLDY    73  56  54 SW5       30.05R
Millville      CLEAR     67  66  97 S3        30.06F
Atlantic City  CLEAR     67  62  84 S9        30.06F
Wrightstown    CLEAR     68  56  66 SW8       30.03F
Toms River     CLEAR     67  59  75 S6        30.06F
Belmar         CLEAR     70  57  63 S8        30.06F
$$

PAZ047>061-062-071-290400-
EASTERN PENNSYLVANIA

CITY           SKY/WX    TMP DP  RH WIND       PRES   REMARKS
Philadelphia   MOCLDY    71  58  63 W3        30.05F
Allentown      CLOUDY    67  47  48 CALM      30.05R
Scranton       CLOUDY    66  42  41 E3        30.06R
$$

CTZ002-004>006-009-010-012-RIZ004-006-007-MAZ004-011-015-290400-
SOUTHERN NEW ENGLAND
 IN CT

CITY           SKY/WX    TMP DP  RH WIND       PRES   REMARKS
Bradley INTL   PTCLDY    66  56  70 S6        30.01S
Hartford       CLEAR     66  55  67 S3        30.01S
Danbury        PTCLDY    60  56  86 CALM      30.04F
Wtrbury/Oxford CLEAR     66  52  59 SW5       30.04F
Bridgeport     CLEAR     62  53  72 W3        30.02F
Meriden        CLEAR     61  55  81 CALM      30.02F
New Haven      CLEAR     58  52  80 CALM      30.02F
Chester          N/A     64  55  72 SW7       30.03F
Groton         CLEAR     55  52  89 S3        30.03F
Wilimantic     CLEAR     70  54  56 SW5       30.02F

 IN RI

CITY           SKY/WX    TMP DP  RH WIND       PRES   REMARKS
Providence     PTCLDY    67  56  67 S7        30.02F
Block Island   NOT AVBL
Westerly       CLEAR     59  56  89 SW3       30.05S
 IN MA

CITY           SKY/WX    TMP DP  RH WIND       PRES   REMARKS
Boston         CLOUDY    71  58  63 SW6       30.00R
Worcester      PTCLDY    68  52  56 SW12      30.03F
Westfield      PTCLDY    68  55  63 CALM      30.00S
Provincetown   CLOUDY    53  51  93 S10       30.02S
Nantucket      FOG       50  49  96 SW12      30.06R VSB 1/4
$$

ANZ330-335-338-340-345-350-353-355-290400-
COASTAL MARINE OBSERVATIONS


STATION/POSITION TIME  SKY/WX   TEMP    WIND        PRES    VSBY  WAVE
                                AIR SEA DIR/SP/G                  HT/PER
                 (UTC)          (F)     (DEG/KT/KT) (MB)    (MI)  (FT/S)
NY HARB ENTRANCE 0150            57 50  210/ 12/ 12 1017.5          4/ 8
20 S FIRE ISLAND 0250            54 50  210/ 10/ 12 1017.2          4/ 8
GREAT SOUTH BAY  0230            58 59  230/  6/ 10   N/A
23 SSW MONTAUK P 0150            52 48              1017.8          5/ 9
15 E BARNEGAT LI 0230               53                N/A           5/ 8
HUDSON CANYON    0150            52 49  200/ 14/ 14 1019.0          4/ 9
KINGS POINT      0248            68 52  190/  5/  7 1016.8
EXECUTION ROCKS  NOT AVBL
CENTRAL LI SOUND NOT AVBL
EASTERN LI SOUND NOT AVBL
ROBBINS REEF     0248            74     210/  9/ 10 1017.4
$$


>>>>>>>>>>>>>>>>>>>>>>>>>>>> KEY <<<<<<<<<<<<<<<<<<<<<<<<<<<
>                                                          <
>     SKY/WX - Sky Condition/Present Weather               <
>     TMP    - Temperature in Fahrenheit                   <
>     DP     - Dew Point in Fahrenheit                     <
>     RH     - Relative Humidity in Percent                <
>     WIND   - Direction (from) and Speed in MPH           <
>     PRES   - Mean Sea Level Pressure (inches of Hg)      <
>     WCI    - Wind Chill Index                            <
>     VSB    - VISIBILITY IN MILES                         <
>     HX     - HEAT INDEX                                  <
>     TC     - TEMPERATURE IN CELSIUS                      <
>     VRB    - VARIABLE WIND DIRECTION                     <
>                                                          <
>>>>>>>>>>>>>>>>>>>>>>>>>>>> KEY <<<<<<<<<<<<<<<<<<<<<<<<<<<




USA.gov is the U.S. government's official web portal to all federal, state and local government web resources and services.